Location: Nandig?ma
(16.7717°N, 80.2860°E)
Time: 20:53:58
(UTC+00:00)

Cosmos 883 Rocket - Pass Details

Date: 03 August 2024
Orbit: 949 x 995 km, 83.0° (Epoch: 18 September)

Event Time Altitude Azimuth Distance (km) Brightness Sun altitude
Exits shadow 23:02:19 - 186° (S) 3,426 7.1 -18.1°
Reaches altitude 10° 23:04:07 10° 187° (S) 2,750 6.6 -17.7°
Maximum altitude 23:10:27 81° 273° (W) 1,009 4.5 -16.4°
Drops below altitude 10° 23:16:47 10° 1° (N) 2,751 7.2 -15.0°
Sets 23:19:18 0° 3° (N) 3,697 7.9 -14.4°
